TimeEDT,TemperatureF,Dew PointF,Humidity,Sea Level PressureIn,VisibilityMPH,Wind Direction,Wind SpeedMPH,Gust SpeedMPH,PrecipitationIn,Events,Conditions,WindDirDegrees,DateUTC
12:15 AM,77.0,69.8,78,30.15,10.0,Calm,Calm,-,N/A,,Clear,0,2013-07-31 04:15:00
12:35 AM,75.2,71.6,89,30.15,10.0,Calm,Calm,-,N/A,,Clear,0,2013-07-31 04:35:00
12:55 AM,73.4,71.6,94,30.14,10.0,Calm,Calm,-,N/A,,Clear,0,2013-07-31 04:55:00
1:15 AM,73.4,71.6,94,30.13,10.0,Calm,Calm,-,N/A,,Clear,0,2013-07-31 05:15:00
1:35 AM,73.4,69.8,88,30.12,10.0,Calm,Calm,-,N/A,,Clear,0,2013-07-31 05:35:00
1:55 AM,73.4,69.8,88,30.11,10.0,Calm,Calm,-,N/A,,Clear,0,2013-07-31 05:55:00
2:15 AM,73.4,69.8,88,30.11,10.0,Calm,Calm,-,N/A,,Scattered Clouds,0,2013-07-31 06:15:00
2:35 AM,73.4,71.6,94,30.10,10.0,Calm,Calm,-,N/A,,Clear,0,2013-07-31 06:35:00
2:55 AM,71.6,69.8,94,30.09,10.0,Calm,Calm,-,N/A,,Clear,0,2013-07-31 06:55:00
3:15 AM,71.6,69.8,94,30.09,10.0,Calm,Calm,-,N/A,,Clear,0,2013-07-31 07:15:00
3:35 AM,71.6,69.8,94,30.09,10.0,Calm,Calm,-,N/A,,Clear,0,2013-07-31 07:35:00
3:55 AM,71.6,69.8,94,30.09,10.0,Calm,Calm,-,N/A,,Clear,0,2013-07-31 07:55:00
4:15 AM,71.6,71.6,100,30.09,10.0,Calm,Calm,-,N/A,,Clear,0,2013-07-31 08:15:00
4:35 AM,71.6,69.8,94,30.09,10.0,Calm,Calm,-,N/A,,Clear,0,2013-07-31 08:35:00
4:55 AM,71.6,69.8,94,30.09,10.0,Calm,Calm,-,N/A,,Clear,0,2013-07-31 08:55:00
5:15 AM,71.6,69.8,94,30.08,10.0,Calm,Calm,-,N/A,,Clear,0,2013-07-31 09:15:00
5:35 AM,71.6,69.8,94,30.08,10.0,Calm,Calm,-,N/A,,Clear,0,2013-07-31 09:35:00
5:55 AM,71.6,69.8,94,30.09,10.0,Calm,Calm,-,N/A,,Clear,0,2013-07-31 09:55:00
6:15 AM,71.6,69.8,94,30.10,10.0,Calm,Calm,-,N/A,,Clear,0,2013-07-31 10:15:00
6:35 AM,71.6,69.8,94,30.10,10.0,Calm,Calm,-,N/A,,Clear,0,2013-07-31 10:35:00
6:55 AM,71.6,69.8,94,30.11,10.0,Calm,Calm,-,N/A,,Clear,0,2013-07-31 10:55:00
7:15 AM,71.6,69.8,94,30.11,10.0,Calm,Calm,-,N/A,,Clear,0,2013-07-31 11:15:00
7:35 AM,71.6,69.8,94,30.11,10.0,Calm,Calm,-,N/A,,Clear,0,2013-07-31 11:35:00
7:55 AM,73.4,71.6,94,30.11,10.0,Calm,Calm,-,N/A,,Clear,0,2013-07-31 11:55:00
8:15 AM,77.0,71.6,83,30.12,10.0,Calm,Calm,-,N/A,,Clear,0,2013-07-31 12:15:00
8:35 AM,78.8,71.6,78,30.13,10.0,Calm,Calm,-,N/A,,Clear,0,2013-07-31 12:35:00
8:55 AM,80.6,71.6,74,30.13,10.0,ESE,3.5,-,N/A,,Clear,110,2013-07-31 12:55:00
9:15 AM,82.4,71.6,70,30.14,10.0,East,3.5,-,N/A,,Scattered Clouds,90,2013-07-31 13:15:00
9:35 AM,82.4,71.6,70,30.14,10.0,Calm,Calm,-,N/A,,Scattered Clouds,0,2013-07-31 13:35:00
9:55 AM,82.4,71.6,70,30.14,10.0,Calm,Calm,-,N/A,,Mostly Cloudy,0,2013-07-31 13:55:00
10:15 AM,84.2,71.6,66,30.14,10.0,East,3.5,-,N/A,,Overcast,90,2013-07-31 14:15:00
10:35 AM,86.0,73.4,66,30.14,10.0,ESE,3.5,-,N/A,,Mostly Cloudy,110,2013-07-31 14:35:00
10:55 AM,87.8,73.4,62,30.14,10.0,East,3.5,-,N/A,,Scattered Clouds,80,2013-07-31 14:55:00
11:15 AM,87.8,73.4,62,30.14,10.0,North,3.5,-,N/A,,Scattered Clouds,350,2013-07-31 15:15:00
11:35 AM,87.8,71.6,58,30.14,10.0,Calm,Calm,-,N/A,,Mostly Cloudy,0,2013-07-31 15:35:00
11:55 AM,86.0,73.4,66,30.13,10.0,Calm,Calm,-,N/A,,Mostly Cloudy,0,2013-07-31 15:55:00
12:15 PM,86.0,71.6,62,30.12,10.0,Calm,Calm,-,N/A,,Mostly Cloudy,0,2013-07-31 16:15:00
12:35 PM,86.0,71.6,62,30.12,10.0,WSW,3.5,-,N/A,,Mostly Cloudy,240,2013-07-31 16:35:00
12:55 PM,87.8,71.6,58,30.11,10.0,Calm,Calm,-,N/A,,Mostly Cloudy,0,2013-07-31 16:55:00
1:15 PM,87.8,71.6,58,30.10,10.0,Calm,Calm,-,N/A,,Overcast,0,2013-07-31 17:15:00
1:35 PM,87.8,71.6,58,30.09,10.0,Calm,Calm,-,N/A,,Overcast,0,2013-07-31 17:35:00
1:55 PM,87.8,73.4,62,30.08,10.0,West,4.6,-,N/A,,Overcast,280,2013-07-31 17:55:00
2:15 PM,87.8,71.6,58,30.07,10.0,SSW,4.6,-,N/A,,Overcast,200,2013-07-31 18:15:00
2:35 PM,87.8,73.4,62,30.06,10.0,West,3.5,-,N/A,,Overcast,280,2013-07-31 18:35:00
2:55 PM,91.4,71.6,52,30.05,10.0,WSW,5.8,-,N/A,,Mostly Cloudy,250,2013-07-31 18:55:00
3:15 PM,91.4,69.8,49,30.04,10.0,SW,4.6,-,N/A,Thunderstorm,Scattered Clouds,220,2013-07-31 19:15:00
3:35 PM,89.6,71.6,55,30.04,10.0,WSW,5.8,-,N/A,Thunderstorm,Scattered Clouds,240,2013-07-31 19:35:00
3:55 PM,87.8,71.6,58,30.04,10.0,WSW,5.8,-,N/A,Thunderstorm,Scattered Clouds,250,2013-07-31 19:55:00
4:15 PM,86.0,73.4,66,30.05,10.0,Calm,Calm,-,N/A,Thunderstorm,Thunderstorm,0,2013-07-31 20:15:00
4:35 PM,78.8,71.6,78,30.06,10.0,NE,5.8,-,N/A,Rain-Thunderstorm,Light Thunderstorms and Rain,50,2013-07-31 20:35:00
4:55 PM,77.0,69.8,78,30.05,7.0,NNE,9.2,17.3,N/A,Rain-Thunderstorm,Light Thunderstorms and Rain,30,2013-07-31 20:55:00
5:15 PM,77.0,68.0,74,30.05,10.0,Calm,Calm,-,N/A,Thunderstorm,Thunderstorm,0,2013-07-31 21:15:00
5:35 PM,77.0,69.8,78,30.05,10.0,Calm,Calm,-,N/A,,Clear,0,2013-07-31 21:35:00
5:55 PM,78.8,68.0,69,30.03,10.0,Calm,Calm,-,N/A,,Clear,0,2013-07-31 21:55:00
6:15 PM,78.8,69.8,74,30.02,10.0,Calm,Calm,-,N/A,,Clear,0,2013-07-31 22:15:00
6:35 PM,78.8,71.6,78,30.03,10.0,Calm,Calm,-,N/A,,Clear,0,2013-07-31 22:35:00
6:55 PM,78.8,71.6,78,30.03,10.0,Calm,Calm,-,N/A,,Clear,0,2013-07-31 22:55:00
7:15 PM,78.8,73.4,83,30.04,10.0,Calm,Calm,-,N/A,,Clear,0,2013-07-31 23:15:00
7:35 PM,77.0,73.4,89,30.04,10.0,Calm,Calm,-,N/A,,Clear,0,2013-07-31 23:35:00
7:55 PM,77.0,71.6,83,30.04,10.0,East,3.5,-,N/A,,Clear,80,2013-07-31 23:55:00
8:15 PM,77.0,71.6,83,30.05,10.0,ENE,3.5,-,N/A,,Clear,60,2013-08-01 00:15:00
8:35 PM,75.2,71.6,89,30.06,10.0,ENE,4.6,-,N/A,,Clear,70,2013-08-01 00:35:00
8:55 PM,75.2,71.6,89,30.06,10.0,ENE,3.5,-,N/A,,Clear,70,2013-08-01 00:55:00
9:15 PM,75.2,71.6,89,30.07,10.0,East,3.5,-,N/A,,Mostly Cloudy,90,2013-08-01 01:15:00
9:35 PM,77.0,71.6,83,30.07,10.0,East,4.6,-,N/A,,Overcast,90,2013-08-01 01:35:00
9:55 PM,77.0,71.6,83,30.07,10.0,NE,3.5,-,N/A,,Scattered Clouds,50,2013-08-01 01:55:00
10:15 PM,75.2,71.6,89,30.08,10.0,ENE,3.5,-,N/A,,Clear,70,2013-08-01 02:15:00
10:35 PM,75.2,71.6,89,30.08,10.0,Calm,Calm,-,N/A,Thunderstorm,Thunderstorm,0,2013-08-01 02:35:00
10:55 PM,75.2,71.6,89,30.08,10.0,Calm,Calm,-,N/A,Thunderstorm,Clear,0,2013-08-01 02:55:00
11:15 PM,73.4,71.6,94,30.08,10.0,Calm,Calm,-,N/A,Thunderstorm,Thunderstorm,0,2013-08-01 03:15:00
11:35 PM,73.4,71.6,94,30.07,10.0,Calm,Calm,-,N/A,,Clear,0,2013-08-01 03:35:00
11:55 PM,73.4,71.6,94,30.07,10.0,Calm,Calm,-,N/A,,Clear,0,2013-08-01 03:55:00